EW8930 Weather Reports


time (UTC)temp
C
wind
direction
speed
KPH
gust
KPH
rain 1hr
cm
rain 24hr
cm
rain mn
cm
humidity
%
barometer
mb
20260508184537 14 231 16.1 24.1 0.00 0.03 0.03 71 1010.4
20260508183036 15 232 9.7 22.5 0.00 0.03 0.03 66 1010.4
20260508181537 15 245 12.9 20.9 0.00 0.03 0.03 65 1010.5
20260508180032 15 239 11.3 22.5 0.00 0.03 0.03 67 1010.8
20260508174534 15 211 11.3 19.3 0.00 0.03 0.03 68 1010.8
20260508173028 15 207 12.9 20.9 0.00 0.03 0.03 68 1011.0
20260508171529 14 223 11.3 19.3 0.00 0.03 0.03 71 1011.2
20260508170024 14 262 12.9 24.1 0.00 0.03 0.03 71 1011.3
20260508164519 13 248 16.1 24.1 0.00 0.03 0.03 75 1011.8
20260508163016 13 236 12.9 19.3 0.00 0.03 0.03 76 1011.9
20260508161513 12 237 12.9 19.3 0.00 0.03 0.03 76 1012.3
20260508160016 12 237 8.0 20.9 0.00 0.03 0.03 76 1012.3
20260508154513 12 234 11.3 17.7 0.00 0.03 0.03 75 1012.2
20260508153013 12 263 12.9 19.3 0.00 0.03 0.03 75 1012.1
20260508151511 12 250 11.3 19.3 0.00 0.03 0.03 75 1012.2
20260508150011 12 235 12.9 16.1 0.00 0.03 0.03 74 1012.2
20260508144510 12 214 8.0 17.7 0.00 0.03 0.03 73 1012.1
20260508143008 12 279 6.4 17.7 0.00 0.03 0.03 74 1012.1
20260508141516 12 280 14.5 19.3 0.00 0.03 0.03 74 1012.1
20260508140014 12 281 8.0 16.1 0.00 0.03 0.03 77 1012.2
20260508134502 11 239 14.5 20.9 0.00 0.03 0.03 77 1012.5
20260508133103 11 296 11.3 19.3 0.00 0.03 0.03 77 1012.4
20260508131558 11 281 14.5 20.9 0.00 0.03 0.03 79 1012.4
20260508130105 10 281 14.5 22.5 0.00 0.03 0.03 79 1012.3
20260508124553 10 271 12.9 19.3 0.00 0.03 0.03 78 1012.3
20260508123056 8 268 12.9 19.3 0.00 0.03 0.03 41 1012.5
20260508121552 8 244 12.9 19.3 0.00 0.03 0.03 41 1012.6
20260508120050 8 242 9.7 16.1 0.00 0.03 0.03 41 1012.3
20260508114551 7 280 6.4 11.3 0.00 0.03 0.03 40 1012.0
20260508113046 7 227 4.8 12.9 0.00 0.03 0.03 40 1011.8
20260508111550 7 219 4.8 11.3 0.00 0.03 0.03 40 1011.8
20260508110044 6 222 4.8 9.7 0.00 0.03 0.03 41 1011.5
20260508104547 6 203 3.2 6.4 0.03 0.03 0.03 42 1011.6
20260508103045 6 219 3.2 8.0 0.03 0.03 0.03 43 1011.6
20260508101545 7 202 4.8 16.1 0.03 0.03 0.03 44 1011.4
20260508100035 7 196 8.0 12.9 0.03 0.03 0.03 49 1011.4
20260508094543 8 196 9.7 14.5 0.00 0.00 0.00 82 1011.3
20260508093033 8 218 8.0 14.5 0.00 0.00 0.00 82 1011.6
20260508091546 8 220 9.7 17.7 0.00 0.00 0.00 82 1011.7
20260508090042 8 219 11.3 22.5 0.00 0.00 0.00 81 1011.6
20260508084529 8 200 6.4 12.9 0.00 0.00 0.00 81 1011.7
20260508083028 8 266 6.4 14.5 0.00 0.00 0.00 81 1011.7
20260508081533 8 228 9.7 19.3 0.00 0.00 0.00 81 1011.7
20260508080041 8 242 9.7 16.1 0.00 0.00 0.00 82 1011.8
20260508074525 7 235 6.4 12.9 0.00 0.00 0.00 81 1011.8
20260508073025 7 219 4.8 8.0 0.00 0.00 0.00 81 1011.8
20260508071526 7 211 3.2 9.7 0.00 0.00 0.00 81 1011.9
20260508070029 7 209 4.8 9.7 0.00 0.00 0.00 82 1012.0
20260508064528 7 216 6.4 12.9 0.00 0.00 0.00 82 1012.1
20260508063018 7 221 4.8 9.7 0.00 0.00 0.00 82 1012.2
20260508061520 7 223 4.8 12.9 0.00 0.00 0.00 82 1012.3
20260508060022 8 232 8.0 16.1 0.00 0.00 0.00 81 1012.3
20260508054512 8 229 9.7 17.7 0.00 0.00 0.00 80 1012.5
20260508053010 8 251 11.3 22.5 0.00 0.00 0.00 79 1012.6
20260508051509 8 245 11.3 17.7 0.00 0.00 0.00 78 1012.4
20260508050008 9 258 11.3 24.1 0.00 0.00 0.00 77 1012.3
20260508044506 9 234 14.5 29.0 0.00 0.00 0.00 73 1012.5
20260508043001 8 201 8.0 14.5 0.00 0.00 0.00 75 1012.5
20260508041600 8 200 4.8 9.7 0.00 0.00 0.00 76 1012.7
20260508040101 8 196 4.8 6.4 0.00 0.00 0.00 76 1012.5
20260508034556 8 198 3.2 8.0 0.00 0.00 0.00 74 1012.6
20260508033114 8 220 3.2 6.4 0.00 0.00 0.00 73 1012.7
20260508031555 8 220 3.2 8.0 0.00 0.00 0.00 72 1012.8
20260508030108 9 234 6.4 9.7 0.00 0.00 0.00 71 1012.9
20260508024619 9 227 1.6 9.7 0.00 0.00 0.00 70 1013.2
20260508023054 10 203 4.8 11.3 0.00 0.00 0.00 66 1013.1
20260508021553 10 234 6.4 11.3 0.00 0.00 0.00 65 1013.1
20260508020106 10 238 9.7 17.7 0.00 0.00 0.00 64 1013.1
20260508014559 10 230 9.7 19.3 0.00 0.00 0.00 63 1013.1
20260508013105 10 238 16.1 29.0 0.00 0.00 0.00 60 1013.1
20260508011557 11 245 19.3 33.8 0.00 0.00 0.00 57 1012.8
20260508010104 11 234 17.7 29.0 0.00 0.00 0.00 55 1012.4
20260508004551 11 244 14.5 29.0 0.00 0.00 0.00 53 1012.4
20260508003050 12 260 14.5 25.7 0.00 0.00 0.00 49 1012.3
20260508001554 12 276 11.3 19.3 0.00 0.00 0.00 44 1012.1
20260508000050 12 271 6.4 12.9 0.00 0.00 0.00 46 1012.0
20260507234548 13 278 9.7 17.7 0.00 0.00 0.00 43 1012.0
20260507233046 13 267 6.4 14.5 0.00 0.00 0.00 41 1012.0
20260507231547 13 292 11.3 17.7 0.00 0.00 0.00 39 1011.8
20260507230048 13 288 14.5 19.3 0.00 0.00 0.00 39 1012.0
20260507224545 13 289 11.3 19.3 0.00 0.00 0.00 39 1012.2
20260507223044 14 277 19.3 25.7 0.00 0.00 0.00 37 1012.2
20260507221543 14 284 20.9 30.6 0.00 0.00 0.00 35 1012.1
20260507220144 13 266 12.9 22.5 0.00 0.00 0.00 39 1012.2
20260507214546 13 306 14.5 29.0 0.00 0.00 0.00 38 1012.1
20260507213048 14 309 17.7 29.0 0.00 0.00 0.00 37 1011.9
20260507211548 13 296 19.3 33.8 0.00 0.00 0.00 38 1012.2
20260507210041 14 298 14.5 27.4 0.00 0.00 0.00 38 1012.1
20260507204537 14 284 14.5 30.6 0.00 0.00 0.00 41 1012.1
20260507203035 14 287 22.5 33.8 0.00 0.00 0.00 40 1012.2
20260507201542 14 309 22.5 41.8 0.00 0.00 0.00 41 1012.2
20260507200038 13 283 24.1 37.0 0.00 0.00 0.00 42 1012.2
20260507194532 13 291 27.4 38.6 0.00 0.00 0.00 38 1012.3
20260507193029 13 326 24.1 37.0 0.00 0.00 0.00 41 1012.3
20260507191529 13 309 27.4 38.6 0.00 0.00 0.00 40 1012.6
20260507190028 13 292 22.5 38.6 0.00 0.00 0.00 39 1012.6